STARLINK-4536, 53783

Orbit data source: Space-Track

STARLINK-4536, 53783 is a payload satellite owned by SpaceX/Seattle (US) in LEO that was launched on Sun, 11 Sep 2022 UTC via an FALCON 9 launch vehicle from the Air Force Eastern Test Range (AFETR). Payload-class satellites include a variety of spacecraft equipped with specific instruments for various scientific and technological missions. These include communications satellites like Starlink; space stations such as the ISS; scientific satellites like the Hubble; Earth observation satellites from companies like Planet Labs, Umbra, and HawkEye 360; GPS; miniature CubeSats for education and research; and military/defense satellites.

Loading next visibility...
Identifier
53783, 2022-111L
Orbit
LEO
Country
Flag of USUS
Related business
Manufacturer
SpaceX/Seattle
Mission
Operational Commercial Communications
Bus & Motor
STARLINK, Unknown motor
Mass
305 kg wet, ~290 kg dry
Launch date (UTC)
2022-09-11 (3 years ago)
Launch vehicle
FALCON 9
Launch site
Air Force Eastern Test Range (AFETR)
Object type
Payload
Rocket body
Debris
Shape & HBR
Box + 1 Pan, 10.1 m
Radar Cross Section
13.562 m², Large (>1 m²)

Expand to show TLE details & history
Last TLE update: 22 hours ago

TLE from 22 hours ago
0 STARLINK-4536
1 53783U 22111L   25286.08257992 -.00001057  00000-0 -48344-4 0  9990
2 53783  53.2164 216.6750 0001327  88.9822 271.1322 15.08838421171418
Epoch: 2025-10-13T01:58Z
TLE epoch observation values (Epoch: 2025-10-13T01:58:54.905Z)
Latitude
-0.00002°
Longitude
165.05575°
Altitude
540.628 km
Speed
7.593 km/s
True Right ascension
14h 26m 41s
True Declination
0° 00' 00"
Sunlit
Object was in daylight at epoch
Visualization orbit readout
Latitude
Unknown
Longitude
Unknown
Altitude
Unknown
Speed
Unknown
Apparent Right ascension
Unknown
Apparent Declination
Unknown
Sunlit
N/A
Visualization observer readout
Local Sidereal Time
18:50:42
Azimuth
Unknown
Elevation
Unknown
Doppler factor
Unknown
Orbital elements
Apogee altitude
540.911 km
Perigee altitude
539.075 km
Semi-major axis
6,918.13 km
Eccentricity
0.00013
Inclination
53.2164°
RAAN
216.675°
Arg. of periapsis
88.9822°
True anomaly
271.117°
Mean anomaly
271.1322°
Eccentric anomaly
271.1246°
Mean motion
3.7719 °/min
Orbital period
95.44 mins
BSTAR
-0.000048344
Loading maneuver chart data...
Computing Atmospheric mass density...
Loading historical data...
Loading historical data...
Loading historical data...
Loading historical data...
Loading historical data...
Loading historical data...
Loading historical data...

Documentation

Showing up to 5 results
|